Wind_Speed
17 16 14 13 11 10 10 10 9 9 8 8 7 6 5 4 2 2 2 2 2 1 0 3 4 5 6 8 9 10 11 11 12 11 11 11 11 12 13 11 11 12 12 13 14 14 15 16 16 16 15 14 13 13 13 14 15 16 17 18 19 18 16 14 13 11 8 6 5 7 9 10 10 11 13 15 19 22 23 23 23 24 24 24 24
18 16 15 13 11 10 10 9 9 9 8 8 8 7 5 4 3 1 2 3 2 1 0 2 4 5 7 8 9 10 11 11 12 11 11 11 12 12 13 12 12 12 12 13 14 15 15 15 16 16 16 15 14 12 12 13 15 16 18 19 19 19 18 17 16 14 11 7 5 6 10 11 10 11 12 14 17 19 22 24 24 24 24 23 23
18 17 15 13 12 10 10 9 9 9 8 8 8 7 5 4 3 2 3 3 2 2 1 2 4 5 7 8 9 9 10 11 12 12 11 12 12 12 13 13 12 12 11 12 13 15 15 15 15 15 15 15 15 12 10 11 13 16 19 19 20 20 19 18 18 16 13 9 6 6 10 11 11 12 11 13 16 18 20 24 25 25 23 22 22
19 18 15 14 12 10 9 9 8 9 9 8 8 7 5 4 3 3 2 2 2 2 3 4 5 6 6 7 8 9 10 11 11 11 10 12 12 12 12 13 13 12 11 11 12 14 14 15 15 15 14 14 15 15 11 10 11 15 19 20 20 20 19 18 18 17 16 13 10 8 8 8 8 11 12 13 16 17 18 22 25 25 23 22 21
19 18 16 14 13 11 10 9 8 8 8 8 8 7 6 5 4 3 3 3 3 3 3 3 5 6 6 6 7 9 10 10 10 10 10 12 13 12 12 13 13 12 11 11 11 12 14 15 15 14 14 14 16 17 14 11 12 17 20 20 20 19 18 17 17 17 17 15 13 12 10 8 6 10 14 14 15 15 17 20 22 24 23 21 20
18 18 16 14 13 12 11 9 8 7 7 7 7 7 6 6 5 5 4 4 4 4 3 3 4 6 7 7 7 8 9 10 10 10 10 12 12 12 13 13 13 13 12 12 11 12 13 14 14 14 14 15 16 17 15 14 16 18 19 19 20 19 18 17 16 16 16 15 15 15 14 10 5 10 14 15 14 14 16 19 21 23 23 21 19
16 17 16 13 13 12 11 9 8 7 6 6 6 6 6 6 6 5 4 4 4 4 3 4 5 6 7 7 8 8 8 9 9 9 10 12 13 13 13 13 13 13 13 12 12 13 13 13 14 13 14 15 16 16 15 16 17 16 18 19 19 18 17 17 16 15 16 15 13 13 11 8 5 11 14 14 15 15 16 18 20 21 22 20 19
14 15 15 13 13 13 11 9 8 7 6 6 5 5 5 6 5 6 5 5 4 3 4 6 5 6 8 8 9 8 8 9 9 9 10 12 13 13 13 13 13 12 12 12 12 12 13 13 13 13 14 15 15 16 16 17 17 16 19 19 18 18 18 17 16 16 16 14 11 8 7 7 6 11 13 13 15 15 16 18 19 20 20 19 18
14 15 14 14 13 13 11 9 8 7 6 5 5 5 5 5 6 6 6 5 5 5 5 6 5 6 7 7 9 9 8 9 9 10 10 11 12 13 12 11 12 12 12 13 12 11 12 13 13 14 15 15 15 15 17 16 16 16 18 18 18 18 19 18 17 17 16 14 10 6 6 8 7 10 14 15 16 16 16 18 18 17 18 18 17
14 14 15 14 14 13 11 10 9 8 7 6 5 5 5 5 6 6 5 5 5 5 6 6 5 5 5 6 8 9 8 9 10 10 11 12 12 13 12 10 12 13 12 12 13 11 11 12 13 14 15 15 15 14 16 15 15 17 17 16 17 20 20 18 18 19 16 12 8 2 5 8 7 9 13 16 18 18 18 18 17 16 17 17 17
15 15 15 15 14 13 12 11 10 9 8 7 6 6 5 6 6 5 4 4 4 5 5 5 5 4 5 6 7 8 9 9 9 10 11 11 11 12 13 12 12 12 12 11 13 12 11 13 13 14 15 14 15 15 15 16 15 16 18 17 18 21 21 20 20 20 17 13 10 4 3 6 6 7 12 17 19 19 19 18 18 17 17 17 17
15 15 16 16 15 14 13 11 11 10 9 9 8 7 6 6 6 5 5 4 3 4 4 4 4 4 5 6 7 8 10 10 9 10 12 11 11 12 13 13 12 12 12 11 13 14 13 13 13 13 14 14 15 14 15 17 16 17 19 20 20 21 22 21 21 21 19 16 13 8 4 2 4 6 11 16 19 19 20 19 18 18 18 17 17
15 16 17 17 15 14 13 12 11 11 11 10 9 9 8 7 7 6 5 4 3 3 4 4 4 4 6 7 8 8 9 10 10 11 12 12 12 12 12 12 11 11 11 11 12 13 12 12 12 12 13 13 14 14 14 16 17 19 20 21 21 21 22 22 23 23 20 18 15 12 9 6 5 7 10 14 18 19 20 20 19 19 18 18 17
15 16 17 17 16 15 13 13 12 11 11 12 11 10 9 9 9 8 6 5 4 5 5 5 5 6 6 7 7 9 10 10 10 12 13 12 11 11 11 10 10 9 9 9 10 12 13 13 13 12 12 12 12 13 14 15 16 19 20 21 21 20 20 22 23 23 21 19 17 15 12 10 7 7 11 14 17 20 21 21 21 20 19 19 18
15 16 17 18 17 15 14 14 12 12 12 12 11 11 10 10 10 9 7 6 6 7 7 7 7 8 7 7 7 9 10 10 10 12 13 13 11 10 10 8 8 10 10 8 9 12 13 13 13 11 10 11 11 12 14 15 16 17 18 19 19 19 20 21 23 23 22 20 19 17 14 12 9 6 11 16 19 20 21 22 22 21 20 19 18
15 16 18 18 17 16 15 14 13 12 12 11 11 11 11 11 11 10 8 8 8 9 9 8 9 9 8 8 8 8 8 8 10 11 11 12 11 9 9 8 7 8 11 11 10 11 12 12 12 11 10 10 10 11 12 14 16 16 16 17 18 19 20 21 22 23 23 21 20 19 17 13 11 8 11 18 21 21 22 23 23 21 20 19 17
16 17 18 17 17 17 16 15 14 12 11 10 10 11 11 11 11 9 9 9 9 10 11 10 10 10 9 9 9 8 8 9 10 12 11 11 12 11 9 10 10 10 11 12 12 11 11 12 12 12 10 10 11 11 11 13 15 15 15 15 17 19 20 21 22 23 23 22 21 20 19 16 13 11 12 16 19 21 22 22 22 21 19 18 17
15 17 17 17 16 16 16 15 14 12 11 10 11 11 11 11 10 10 10 10 10 10 11 12 11 10 10 9 9 9 9 10 10 11 11 12 15 15 13 13 13 12 11 12 12 11 10 11 12 12 11 10 10 10 10 12 13 14 14 15 16 18 20 21 22 23 24 24 23 21 20 19 17 15 14 15 16 17 18 19 19 20 19 18 17
15 15 16 15 15 16 16 16 14 13 11 10 11 12 13 12 11 11 11 11 11 11 11 12 11 11 10 10 10 10 10 11 10 10 11 12 14 16 16 16 14 12 13 13 13 12 10 9 11 12 10 9 8 8 9 10 11 12 14 14 15 17 19 20 22 23 23 24 24 22 21 20 19 17 16 15 16 16 16 16 16 17 16 15 14
13 13 14 14 15 15 15 15 13 11 10 10 12 13 14 13 12 12 12 12 12 12 12 12 12 12 11 10 10 11 10 11 11 11 11 12 13 14 14 15 14 14 15 15 13 12 11 9 11 11 9 8 8 7 8 8 9 11 13 14 14 16 17 19 20 22 23 23 23 23 22 20 19 18 17 15 15 14 14 14 14 14 13 12 12
13 12 13 13 14 14 14 13 11 10 10 11 13 13 13 13 13 12 12 12 12 12 12 12 12 13 11 10 10 10 10 11 11 11 11 11 12 12 12 12 12 14 16 14 12 12 11 10 10 9 9 9 8 7 7 7 8 9 12 13 13 14 15 17 18 20 21 22 22 22 21 20 19 17 17 15 14 13 13 12 11 11 10 9 9
14 13 12 13 13 13 12 11 10 10 10 11 12 12 12 12 12 12 12 12 11 11 11 11 11 12 12 11 10 10 10 10 11 11 11 12 11 11 11 11 11 13 14 12 10 10 10 10 10 9 8 9 9 7 6 7 7 8 10 11 12 12 13 14 16 17 19 20 21 21 20 20 19 17 16 15 14 13 12 11 10 9 9 8 8
14 13 13 12 12 12 11 10 10 10 10 11 11 10 10 11 11 11 12 11 11 10 10 10 10 10 11 10 9 9 10 10 11 11 11 11 11 10 9 9 10 11 12 11 9 9 10 10 9 9 8 8 9 7 6 6 6 7 9 10 10 11 12 12 13 15 16 17 18 19 19 19 18 17 16 15 14 13 12 11 10 9 8 8 7
13 13 12 13 12 11 11 10 10 10 10 11 10 10 10 11 11 11 11 10 10 9 9 10 10 9 9 8 7 8 10 10 11 10 10 10 9 9 8 8 9 10 10 10 10 10 10 9 8 8 8 8 8 7 6 6 7 7 7 8 9 9 10 11 11 12 13 14 15 16 17 17 17 16 15 14 14 13 12 11 10 9 8 7 6
12 12 12 13 12 12 11 11 11 11 10 11 11 11 11 11 11 11 10 10 10 10 10 10 10 9 8 8 8 9 9 10 10 10 10 9 8 7 8 8 8 8 9 8 9 9 9 9 8 8 8 9 8 7 6 6 7 7 7 7 7 8 9 10 10 10 11 12 13 14 14 15 15 15 14 14 13 12 12 11 10 9 8 8 7
12 12 13 13 13 13 13 12 12 11 11 11 11 11 11 10 10 10 10 10 9 9 10 10 10 9 8 8 8 8 9 10 10 9 9 8 7 6 6 6 6 7 8 9 8 8 8 8 7 7 8 8 8 8 7 6 7 7 7 6 6 7 8 8 9 9 9 10 11 11 12 12 12 12 12 12 12 11 11 10 9 8 7 7 6
13 13 14 14 14 13 13 12 12 11 11 11 11 11 10 10 10 10 10 9 9 9 9 9 8 7 7 6 6 8 8 9 9 8 8 7 6 6 5 5 6 6 7 9 8 7 7 7 5 6 6 7 7 8 8 7 7 6 6 6 6 6 7 7 7 8 8 8 9 10 10 10 10 10 10 10 10 10 10 9 8 8 7 6 6
14 14 15 15 14 13 13 13 12 12 11 11 11 11 10 9 9 9 9 9 9 9 8 8 7 7 6 6 6 7 7 8 8 7 7 6 5 5 5 5 5 5 6 9 9 7 7 6 5 4 5 6 6 7 7 7 7 6 5 5 5 6 6 6 6 6 6 6 7 8 8 8 8 8 8 7 7 8 8 8 7 7 6 5 5
15 15 16 15 15 14 13 12 12 12 12 11 11 11 10 10 10 9 9 9 8 8 8 8 7 7 7 7 7 8 8 7 7 7 7 7 6 6 6 6 6 5 6 8 10 9 7 7 6 6 5 6 6 6 6 7 7 6 6 5 5 5 5 5 5 5 5 5 5 6 7 7 6 7 7 6 6 5 5 6 6 6 5 5 4
16 17 16 16 15 14 13 12 12 12 12 11 11 11 11 11 10 10 10 9 9 8 8 8 8 8 8 8 8 8 8 8 8 8 8 8 8 7 8 8 8 8 7 8 10 11 9 8 7 7 6 6 6 6 6 6 6 6 6 6 6 6 5 4 4 4 4 4 4 4 4 5 5 5 5 5 5 4 4 4 4 4 4 4 4
17 17 16 16 15 14 13 13 13 12 12 12 12 12 11 11 11 11 11 10 10 10 9 9 9 9 9 9 9 8 8 8 8 9 9 9 9 9 10 9 9 9 9 8 9 10 11 9 8 8 8 7 6 6 6 6 5 6 6 6 6 6 6 5 4 3 3 3 4 4 3 3 3 3 3 3 3 3 3 3 3 2 2 2 2
17 17 16 16 15 15 14 14 13 13 13 12 12 12 11 10 10 10 11 11 10 11 10 10 10 10 10 10 10 10 9 9 9 9 9 9 9 10 11 10 10 10 10 9 9 9 11 10 9 9 9 8 7 6 7 8 6 6 6 6 6 6 6 6 4 3 3 3 3 3 3 3 2 2 2 2 1 1 1 1 1 1 1 1 2
18 17 16 15 15 15 15 15 14 14 14 13 13 12 11 11 10 10 11 11 11 11 11 11 11 11 12 11 11 11 11 10 10 10 10 10 10 11 12 12 11 11 11 10 10 10 11 11 12 12 11 10 9 8 8 9 8 7 7 7 7 7 7 7 6 4 4 5 4 4 4 4 3 3 2 3 3 2 2 2 1 2 2 2 2
18 17 16 15 15 15 15 16 15 15 15 14 14 13 12 12 11 11 12 12 11 11 11 11 11 12 13 13 12 12 12 13 13 13 12 12 11 12 13 13 12 12 12 11 11 12 12 13 14 15 15 12 12 11 10 10 10 10 9 9 8 8 8 8 8 6 5 6 7 6 6 6 5 5 4 5 5 5 5 5 4 4 4 4 5
18 18 17 16 16 16 16 16 16 16 16 15 15 14 14 13 12 13 13 13 12 12 12 12 12 13 14 14 13 14 15 15 14 14 14 14 14 13 13 14 13 14 14 14 13 13 13 14 15 16 18 16 14 14 13 13 12 12 11 11 10 9 9 9 9 9 6 6 8 8 8 8 8 8 7 7 7 7 8 8 8 7 7 7 7
19 19 18 18 17 17 17 17 17 17 17 17 16 15 15 14 14 14 15 14 14 13 13 14 15 15 16 16 15 15 16 16 15 15 16 17 17 15 15 16 16 16 16 16 16 15 15 15 15 16 18 18 17 16 15 14 14 14 13 13 12 12 11 10 11 11 8 7 9 9 9 10 10 10 10 10 10 10 10 10 11 10 10 10 9
20 20 19 19 19 18 18 18 18 18 18 18 17 16 16 16 16 16 16 15 15 15 15 16 17 17 18 18 16 16 16 16 16 17 17 18 19 18 17 18 18 17 17 18 18 17 16 16 16 16 17 18 18 16 15 14 14 14 14 14 13 13 12 11 12 13 12 10 10 10 10 10 11 11 12 12 12 12 12 12 13 13 13 13 13
22 22 21 21 20 20 20 20 19 19 18 18 18 17 17 18 18 17 17 16 16 16 16 18 19 19 19 19 17 17 18 17 17 17 17 18 19 18 18 18 18 18 18 18 18 17 17 17 17 18 19 19 17 15 13 12 13 13 14 14 14 14 13 12 12 13 14 13 11 12 12 12 12 12 13 13 13 14 14 15 15 16 16 16 15
24 24 23 22 22 21 21 21 21 20 19 19 19 19 19 19 18 18 18 17 17 17 19 20 20 19 20 19 17 17 17 18 18 18 17 17 18 19 18 18 18 18 18 19 18 18 19 19 19 20 19 19 19 16 13 12 13 14 14 14 15 15 14 14 13 12 14 14 14 14 14 13 13 13 13 13 13 13 14 15 16 17 17 18 18
25 25 24 24 23 23 23 22 22 21 20 20 20 20 20 19 19 19 18 18 18 19 20 21 20 19 19 18 17 17 17 17 17 17 17 17 17 17 17 16 17 17 18 20 20 20 20 19 19 20 19 18 17 16 15 14 15 16 15 13 14 16 16 15 15 14 14 14 14 15 15 15 14 14 14 14 14 14 15 15 15 16 17 18 19
26 25 25 26 25 24 23 23 22 22 21 21 21 21 20 20 20 20 19 19 19 20 21 21 20 20 19 17 17 17 17 16 16 16 16 17 17 17 16 16 17 17 18 20 21 21 21 20 19 19 19 18 16 15 15 16 17 17 17 15 13 15 16 16 17 17 16 16 16 15 15 16 16 16 16 15 16 16 16 16 16 16 17 18 20
27 26 26 26 25 25 24 23 23 23 22 23 22 21 21 21 21 20 20 20 19 20 21 21 20 20 19 18 17 18 18 17 17 17 18 18 18 18 17 16 16 16 18 20 20 21 20 20 19 19 18 17 15 15 16 16 17 17 18 17 15 15 15 15 16 17 16 16 17 16 16 17 17 17 18 18 18 18 18 19 19 17 18 19 20
28 28 27 27 26 26 25 24 24 24 24 23 22 21 22 22 21 21 21 21 21 21 20 20 20 21 20 19 20 20 19 19 19 19 20 20 20 20 20 19 18 17 18 19 20 20 20 20 19 19 18 16 15 16 15 16 16 16 16 17 17 17 17 15 15 15 15 15 16 16 16 17 18 18 18 19 20 20 21 21 20 18 18 19 20
29 29 28 27 27 26 26 26 25 24 25 24 22 22 22 22 22 22 22 22 22 22 21 21 21 21 21 23 23 22 19 19 21 21 22 22 22 22 22 22 21 21 21 20 20 20 19 19 18 17 17 15 15 15 15 15 16 16 16 17 17 18 20 18 16 15 14 14 15 15 16 17 18 18 19 20 20 21 23 23 22 20 19 20 21
30 30 29 28 28 26 26 26 25 26 26 24 22 23 23 23 23 23 24 24 24 24 23 22 22 23 24 24 24 21 20 21 23 24 24 25 25 25 25 24 24 24 23 22 21 20 20 19 18 17 16 15 15 15 16 16 16 17 17 19 19 19 19 20 20 18 16 15 17 17 17 18 19 19 21 22 21 21 23 23 22 22 22 22 22
31 31 30 30 29 27 27 26 26 28 28 24 23 24 24 24 24 24 24 25 25 25 24 23 24 26 26 26 24 23 24 25 26 27 28 28 28 28 28 27 27 26 25 25 24 22 21 20 18 18 17 16 16 17 17 18 18 18 19 20 21 20 20 20 21 21 20 19 19 19 18 19 20 20 22 23 22 23 26 24 22 22 23 24 25
33 33 33 31 30 29 29 28 29 30 28 25 25 25 24 24 25 25 26 25 25 25 25 25 25 27 28 27 27 27 28 29 29 29 31 32 31 30 30 30 30 28 26 26 25 24 23 23 20 19 18 17 17 18 19 19 19 19 20 20 20 21 20 20 21 22 22 21 20 20 19 19 21 22 22 24 23 24 26 27 25 24 24 24 25
35 35 35 34 33 33 32 31 32 32 29 27 26 26 25 26 26 26 27 26 25 25 25 25 26 28 28 29 29 30 31 32 31 31 32 33 32 31 30 30 30 28 25 24 22 20 21 20 18 17 18 17 17 17 18 19 19 20 20 21 20 20 20 20 21 22 23 22 22 22 22 22 23 23 24 25 25 26 27 29 29 27 26 26 27
35 35 36 36 35 35 34 34 35 34 30 28 28 27 26 27 27 27 27 26 25 25 26 27 28 29 29 30 31 31 32 33 33 32 33 34 32 31 30 30 29 27 25 23 19 17 17 16 15 15 16 16 16 17 17 18 20 20 21 21 21 21 22 22 21 23 24 24 24 25 25 26 25 26 26 27 28 29 30 31 32 31 30 29 30
37 36 36 36 36 36 35 35 36 35 31 29 29 28 27 27 27 27 27 26 26 27 27 28 29 30 31 31 31 31 32 33 33 32 31 29 27 26 26 26 24 20 18 18 16 16 16 16 16 16 16 17 17 17 18 19 21 22 23 23 23 23 23 23 23 25 27 28 29 29 30 31 30 30 29 30 30 32 32 32 32 34 34 34 32
38 37 35 35 35 36 36 35 35 35 32 30 30 28 27 26 27 28 28 28 28 28 28 28 29 29 29 29 29 29 29 29 29 28 26 23 20 19 17 16 15 14 15 16 18 19 19 19 19 19 20 21 22 22 22 22 22 22 23 24 24 24 24 25 26 28 29 30 31 31 31 32 32 32 31 31 31 31 32 33 32 32 33 34 33
Wind_Direction
166 163 160 158 155 153 152 151 154 156 159 165 168 167 166 163 156 139 135 145 159 164 358 5 14 13 18 21 17 14 10 12 17 17 13 10 11 14 21 23 21 21 20 21 25 25 27 27 22 17 15 15 15 15 15 10 8 9 10 7 2 357 351 344 338 326 310 298 281 269 261 250 238 233 228 224 224 221 220 224 226 228 226 220 214
169 164 163 160 158 155 154 155 158 160 163 172 177 179 177 176 176 186 174 164 188 229 344 354 359 5 8 11 9 5 0 2 8 10 7 6 5 6 13 17 14 17 17 16 21 22 23 23 17 13 11 9 8 13 21 13 7 11 10 8 3 357 351 342 337 332 323 316 294 260 251 249 241 231 222 219 222 218 215 218 220 223 224 222 218
172 167 165 163 161 157 156 159 164 166 170 178 185 190 191 186 183 190 187 180 219 271 325 345 353 357 356 359 358 354 351 354 360 3 360 359 1 2 9 15 14 15 14 13 17 18 19 21 15 10 7 7 3 2 25 21 9 16 14 8 4 357 350 341 335 333 329 326 311 271 250 247 243 237 224 216 216 212 210 214 217 219 219 219 218
174 171 167 165 163 160 159 161 167 173 177 185 192 201 201 192 193 194 191 202 243 277 319 340 344 342 345 347 344 342 342 347 354 357 353 349 354 1 9 15 17 17 13 10 12 11 13 16 13 9 4 6 359 349 12 22 8 20 20 11 5 357 350 340 334 333 331 330 322 298 268 253 246 241 229 216 213 208 206 210 214 217 217 215 214
174 175 171 166 164 163 164 164 168 174 181 192 201 209 204 193 203 215 224 238 252 277 308 334 330 328 333 332 332 332 333 341 349 353 352 348 351 359 5 8 13 17 16 12 8 4 7 10 9 7 2 5 360 346 354 11 12 21 21 14 7 356 350 343 336 335 332 329 325 315 302 287 253 236 231 220 213 209 205 207 210 213 214 213 212
175 177 174 168 166 167 169 170 170 173 180 192 203 210 205 198 203 220 238 248 252 264 284 310 313 315 317 316 320 321 327 338 346 350 351 351 350 352 356 358 1 8 16 17 9 2 3 7 5 4 2 3 3 348 345 9 20 19 17 15 8 356 353 348 339 337 329 322 319 314 308 298 245 215 223 219 211 206 202 203 205 208 211 210 209
178 179 178 173 171 172 173 174 176 178 181 189 203 207 207 207 207 218 232 241 247 259 282 294 303 310 307 310 313 310 322 333 340 345 344 346 347 347 352 354 354 357 8 11 3 357 358 4 3 2 2 1 5 349 343 15 22 15 15 16 9 358 358 355 343 338 329 322 318 310 297 280 218 197 208 211 207 201 195 197 201 204 205 203 204
182 182 184 178 176 179 180 179 181 187 189 195 206 212 216 219 219 226 233 232 237 260 284 287 304 319 314 319 317 307 318 329 336 341 336 337 341 344 347 351 354 353 359 1 357 356 355 2 3 2 1 1 7 350 344 16 21 14 20 16 7 2 4 1 346 338 337 337 335 316 277 251 214 194 195 196 200 197 190 190 196 201 200 197 200
187 187 190 185 182 185 186 184 187 195 198 202 214 223 227 231 232 234 239 235 232 248 270 280 297 313 312 317 311 305 318 328 333 335 333 334 337 340 339 347 355 350 354 356 357 3 359 2 4 2 2 0 8 354 345 13 21 15 23 17 7 9 11 5 351 345 350 351 345 324 264 248 224 198 192 189 191 189 184 184 185 190 193 193 194
191 192 196 193 190 192 194 191 194 200 203 210 223 233 237 242 243 236 234 237 244 253 264 273 276 286 299 303 299 306 320 326 331 335 337 338 337 339 337 349 1 349 347 349 350 2 8 8 5 3 4 1 8 1 345 4 22 16 21 22 14 15 16 8 359 357 359 3 3 344 248 246 228 202 192 189 189 182 178 177 171 174 182 184 186
196 196 199 199 196 198 201 200 202 204 208 217 226 235 237 242 251 247 234 234 246 260 265 266 264 274 292 294 297 310 318 321 333 339 340 341 339 339 335 347 3 349 342 346 345 354 11 15 8 4 6 4 8 7 349 353 17 20 19 25 22 18 17 11 6 6 7 17 32 56 220 236 223 200 189 188 188 181 175 172 166 166 170 173 177
201 200 200 201 199 202 205 206 209 211 214 220 226 232 229 233 249 254 248 241 239 255 259 254 256 273 290 296 303 310 314 324 340 342 342 343 339 340 337 342 354 348 343 349 347 347 1 12 8 4 7 9 9 9 0 354 4 19 21 26 25 18 16 15 14 12 14 22 32 55 91 173 181 174 178 185 185 179 174 169 167 166 165 167 171
205 203 202 203 203 205 208 209 214 217 219 222 225 229 229 236 249 251 249 249 251 258 258 256 263 287 303 308 313 311 315 333 343 339 340 340 337 339 341 343 346 343 343 349 350 346 354 7 8 5 7 13 11 9 12 6 5 15 23 27 27 19 15 18 20 17 19 24 29 46 68 90 128 148 161 175 178 176 173 168 167 169 168 169 171
205 204 203 205 206 207 210 213 217 221 224 225 225 229 232 240 250 252 250 253 266 269 267 270 277 292 304 312 319 316 320 334 335 332 337 336 337 336 335 343 338 330 336 348 357 353 355 7 7 4 7 14 16 12 18 21 18 19 23 28 29 22 17 22 27 24 23 27 33 41 54 67 89 132 147 157 169 174 173 168 169 174 174 174 176
205 204 204 207 208 208 213 216 218 222 226 226 226 231 236 241 249 253 256 264 276 277 273 277 283 290 298 303 312 314 322 334 332 331 333 331 335 330 323 335 332 330 341 353 10 4 359 7 6 4 8 12 18 21 22 25 28 30 29 31 32 28 22 25 33 33 30 31 37 42 48 58 73 117 148 152 159 169 173 172 172 178 181 179 180
206 206 206 208 209 210 215 217 219 222 225 224 227 235 239 244 251 257 262 268 275 281 282 283 285 288 291 295 301 304 312 323 321 319 324 327 328 317 313 327 335 347 352 353 9 9 3 9 10 8 8 9 19 27 27 27 30 34 38 39 38 34 29 28 36 40 40 40 44 48 50 58 77 110 148 153 154 161 170 173 174 179 185 183 182
208 207 207 208 209 211 216 218 220 223 224 225 230 239 244 249 256 260 263 265 269 278 284 285 285 287 289 289 293 296 297 302 306 308 315 316 311 313 330 340 343 357 1 358 3 5 4 9 8 9 6 8 20 26 30 33 32 35 42 46 44 41 35 31 37 43 46 47 50 56 58 61 76 100 132 148 151 156 164 170 172 175 181 181 180
209 209 208 209 211 214 217 220 223 225 227 231 238 245 248 250 256 259 259 261 265 273 281 284 284 286 287 287 289 292 294 298 302 307 311 306 305 322 345 347 343 354 3 1 359 358 4 5 3 7 10 12 17 22 31 37 37 37 44 52 51 48 42 35 36 42 48 51 52 58 64 67 74 88 108 128 139 147 156 162 165 167 170 173 175
208 210 210 211 214 215 218 222 226 227 229 237 244 248 250 250 254 256 257 261 265 270 276 280 283 284 284 288 292 294 296 299 301 304 308 304 309 325 337 338 342 356 5 0 353 353 359 1 1 5 12 16 16 24 35 39 41 43 48 54 56 54 49 42 37 39 46 52 55 57 63 70 75 83 94 108 120 130 139 145 149 153 158 163 167
207 208 210 213 216 217 220 224 228 230 233 241 247 250 252 253 255 257 259 265 268 270 272 274 279 280 279 284 291 295 298 300 303 306 308 308 317 327 334 337 341 347 356 358 349 347 351 355 360 3 9 12 15 28 37 37 41 47 51 55 58 58 55 49 43 40 42 49 56 59 62 67 74 81 88 96 106 117 126 133 139 145 151 157 162
205 206 208 212 216 219 221 224 228 233 238 245 249 251 253 254 257 259 262 267 270 272 273 273 274 276 278 282 286 291 294 296 300 306 309 312 322 329 332 336 335 332 342 352 348 344 347 352 357 2 6 6 9 25 35 35 38 45 53 57 58 59 58 55 52 47 43 45 51 58 63 65 70 76 83 89 94 102 110 117 126 134 144 152 161
205 206 206 210 215 215 217 221 228 235 241 246 249 250 252 255 259 262 265 267 270 273 275 274 273 276 282 284 284 285 285 288 295 302 307 312 322 326 328 332 330 328 336 344 347 348 348 352 358 1 5 3 4 16 26 31 35 37 47 57 59 60 59 56 56 55 51 47 47 53 60 65 68 72 77 83 88 92 97 103 109 118 129 139 152
206 209 207 210 213 212 214 221 228 234 238 242 245 248 253 258 260 262 263 265 268 273 276 278 277 277 281 283 284 284 284 287 292 296 301 310 319 323 324 329 328 328 337 343 347 354 351 351 1 5 6 4 0 6 16 24 29 29 35 47 54 58 60 57 55 56 58 55 52 51 54 60 66 70 73 78 84 89 93 98 103 110 118 128 139
209 211 211 213 214 214 217 223 228 233 238 242 246 250 256 261 262 263 264 267 271 275 278 280 280 279 279 284 283 282 285 289 292 297 302 309 316 318 319 329 333 333 342 352 354 355 353 351 358 4 7 7 2 1 11 17 20 23 27 37 44 49 57 60 56 55 58 60 60 57 54 56 61 67 73 76 80 84 89 94 99 103 109 115 122
213 212 213 216 217 218 221 225 230 236 242 248 251 254 258 261 264 267 271 273 275 276 277 278 280 280 282 285 282 281 286 290 294 299 304 309 313 314 319 327 333 333 341 356 360 356 355 353 355 356 358 3 4 3 12 19 18 17 17 26 35 39 47 55 57 57 58 59 61 61 60 58 57 60 67 74 80 83 86 89 92 97 102 108 115
215 215 216 218 219 222 225 229 235 240 245 250 253 255 257 259 263 267 271 274 275 275 276 277 281 284 285 284 282 285 288 290 295 299 300 306 311 315 320 321 324 334 343 350 358 2 1 355 351 350 351 357 2 3 8 16 19 18 15 17 24 33 42 46 50 54 57 60 61 61 61 61 60 58 59 65 72 80 87 91 95 100 104 110 117
216 216 219 222 223 226 231 235 239 243 246 249 251 253 254 255 259 263 267 271 272 272 275 279 285 291 291 285 282 284 286 290 296 299 298 302 308 311 313 307 312 331 338 339 348 358 355 347 341 343 347 353 358 359 1 5 11 17 17 14 14 24 35 40 44 48 51 56 61 62 60 59 60 60 60 61 63 68 75 84 93 103 112 122 130
217 218 222 224 226 229 234 239 242 244 246 248 249 250 250 251 254 259 263 267 271 273 275 279 288 297 296 293 287 285 289 295 299 301 300 301 303 303 304 299 303 319 324 325 330 335 334 330 333 343 347 350 355 357 355 355 358 3 8 9 8 13 22 26 31 38 41 48 58 64 63 59 57 57 58 60 62 63 65 69 77 85 97 114 131
219 221 224 227 229 231 235 239 242 245 247 248 249 250 250 250 252 255 259 265 272 274 275 279 287 294 296 295 292 289 293 297 298 299 299 300 298 295 297 298 300 305 308 311 313 316 321 326 334 342 339 337 344 348 349 348 348 349 352 353 356 4 11 10 10 17 21 27 43 57 63 65 63 60 57 54 54 58 59 61 63 65 69 75 87
222 224 227 230 231 231 231 235 239 242 246 248 251 253 254 255 255 257 258 263 269 272 275 281 286 288 288 289 288 287 290 292 294 297 298 301 301 298 297 298 303 305 304 305 306 309 315 324 333 334 328 328 329 329 334 339 341 341 340 341 345 349 352 354 356 357 358 358 5 27 48 56 61 65 66 63 57 51 49 49 49 51 54 54 52
224 226 227 228 230 228 227 230 235 238 242 244 248 253 259 262 263 264 264 264 267 271 275 280 284 285 283 282 282 283 284 285 287 291 295 299 301 300 296 295 298 300 300 300 301 304 308 316 324 322 320 323 319 315 315 319 328 331 328 330 332 332 333 334 336 336 337 339 341 349 8 22 31 44 57 71 76 65 54 47 34 26 22 19 17
225 226 226 225 226 225 225 228 232 235 237 239 244 250 256 262 265 268 270 270 271 271 274 277 278 279 279 279 279 279 278 279 282 284 287 290 291 291 290 289 290 291 292 294 296 296 297 304 311 309 310 314 313 310 305 306 314 317 317 321 318 316 318 315 313 315 312 308 312 318 323 328 341 355 4 16 44 71 69 58 33 11 348 333 322
225 226 226 227 227 227 228 230 232 233 234 235 241 247 251 253 255 262 267 270 270 270 272 273 272 275 276 277 278 279 278 276 273 270 271 275 280 283 283 282 283 285 289 292 296 295 294 301 305 301 301 303 302 301 298 299 303 304 308 313 309 308 307 304 304 306 303 300 295 290 291 293 292 290 298 302 299 294 284 277 279 282 287 278 270
228 229 230 230 231 231 232 234 235 235 236 236 241 245 248 250 251 256 261 264 264 265 267 268 270 272 274 276 278 277 274 269 264 263 265 269 271 274 276 278 282 287 290 292 294 294 296 299 299 296 297 299 298 297 296 295 296 298 299 301 304 306 304 303 302 296 292 294 292 288 285 283 280 276 273 271 272 274 273 272 272 271 273 273 269
232 234 236 237 237 237 237 239 239 239 240 241 243 246 248 251 253 254 256 259 261 262 263 265 265 265 267 269 269 269 271 272 271 273 277 280 280 279 279 281 285 287 288 290 291 293 295 295 293 292 294 297 297 294 293 292 291 292 294 297 302 300 296 298 295 290 292 291 285 284 283 282 281 277 274 270 268 269 268 269 270 270 271 271 272
234 236 238 241 243 244 243 242 241 241 243 245 247 250 252 255 256 255 254 256 258 260 262 264 265 265 267 266 264 266 273 276 279 284 287 288 288 286 280 279 282 285 287 289 289 291 292 290 289 289 290 291 290 288 288 289 291 292 292 295 297 293 292 295 289 286 290 287 282 281 278 278 281 280 278 275 272 270 268 267 267 267 268 270 271
236 237 239 242 245 247 247 246 243 243 244 247 251 254 256 258 258 256 255 255 257 259 261 265 267 268 272 274 276 278 280 280 284 289 292 290 288 284 279 275 277 281 284 286 286 287 285 285 286 286 283 280 278 279 283 288 290 291 290 290 289 287 289 291 287 285 287 284 284 285 281 279 280 280 280 279 277 276 274 271 269 268 268 269 270
237 237 239 241 243 245 247 247 246 245 245 247 251 254 257 259 259 259 259 260 262 265 266 267 270 273 277 280 282 284 287 289 291 293 294 293 290 286 281 277 276 278 280 282 284 285 284 285 287 287 286 285 282 279 281 286 287 285 285 285 285 285 287 287 285 285 287 290 290 288 285 282 280 278 278 276 276 277 277 276 274 272 271 271 270
240 239 239 240 242 243 245 246 245 245 246 248 250 253 256 259 261 262 264 266 269 273 274 273 276 280 282 285 286 286 288 290 292 294 296 297 293 287 282 278 278 278 279 281 283 284 284 286 286 286 291 296 299 298 295 292 288 282 279 281 285 287 287 288 286 283 284 289 291 287 286 284 282 281 279 277 276 275 274 274 274 275 274 274 273
240 241 241 242 242 243 244 244 244 243 244 247 250 253 256 258 260 262 264 268 273 277 278 278 280 281 281 284 287 287 288 290 291 292 294 296 294 290 287 283 280 279 279 281 283 284 284 285 285 286 290 293 297 300 298 294 291 288 282 279 283 287 287 286 282 277 275 277 277 278 280 281 281 280 279 279 279 277 275 273 272 273 273 272 272
237 238 239 241 242 244 245 245 244 244 244 246 249 252 253 255 258 261 264 269 273 275 276 276 278 279 279 282 284 285 287 290 291 290 292 294 294 294 291 284 280 282 283 284 285 285 285 285 285 287 288 289 291 295 294 290 290 290 285 278 274 278 281 280 278 276 276 275 273 272 275 277 279 279 277 276 275 274 275 276 275 274 273 271 270
234 235 236 238 240 243 244 245 245 246 246 246 248 250 251 252 255 260 265 269 271 272 272 273 274 276 278 280 282 282 284 287 289 289 291 294 295 297 296 290 285 285 286 287 287 287 287 287 287 288 289 291 292 292 291 288 287 289 288 284 276 272 271 271 275 278 280 279 278 277 275 276 276 276 276 276 274 272 270 267 265 265 267 269 270
234 234 234 236 238 241 243 244 245 246 248 249 249 250 250 252 256 261 265 268 270 270 270 271 272 274 277 282 283 282 284 289 291 289 289 291 291 293 295 295 293 290 289 289 289 288 288 288 287 288 289 292 293 292 290 288 288 290 293 291 286 279 275 271 272 277 279 281 280 277 274 275 276 276 276 276 275 274 272 270 268 266 266 268 269
235 236 236 237 237 238 240 242 244 246 248 248 249 250 251 254 259 264 267 270 271 270 270 270 271 273 276 279 278 277 281 289 291 290 289 290 290 290 291 292 293 291 290 289 288 288 289 288 287 286 285 286 288 289 288 288 289 292 294 292 289 286 285 283 278 275 276 279 280 277 275 276 276 276 275 272 271 274 277 281 284 282 277 274 274
235 236 237 237 237 237 238 240 242 245 247 246 247 249 252 255 260 265 269 271 272 272 271 271 273 275 275 276 277 280 286 289 289 289 290 289 290 290 288 288 288 287 285 284 284 286 287 287 285 281 278 278 280 283 287 288 290 292 292 292 292 292 292 291 288 286 284 282 283 284 283 281 279 278 278 277 277 278 279 280 283 283 281 280 280
236 237 238 238 238 237 237 238 240 243 246 247 248 249 252 255 259 263 267 270 272 272 272 272 275 279 282 285 288 290 289 287 285 286 287 287 287 286 286 286 285 282 281 280 279 280 282 284 283 280 278 280 282 285 288 290 291 291 290 290 291 291 290 290 291 293 293 291 289 289 287 286 284 281 281 282 282 283 284 285 284 283 284 284 283
236 238 239 240 241 240 239 239 242 244 247 248 249 251 252 254 257 260 263 266 269 271 271 272 275 279 283 286 287 286 284 283 283 283 283 283 283 284 285 284 282 281 280 278 274 273 274 274 274 276 280 283 285 287 289 291 292 291 290 288 288 288 289 290 291 292 293 293 291 288 288 289 288 286 284 284 285 286 287 288 287 286 286 286 285
237 238 239 240 241 242 242 242 244 245 247 250 252 253 253 254 255 257 260 262 265 268 270 273 275 277 279 280 282 282 282 281 281 281 281 282 284 286 285 284 284 284 281 276 274 274 273 271 270 273 278 282 284 286 287 290 292 291 291 289 289 290 291 291 292 291 292 293 293 290 289 289 289 288 288 289 291 291 288 289 291 291 289 288 287
236 237 239 240 241 243 243 244 246 246 246 250 254 255 255 256 255 256 258 260 262 265 268 270 272 274 277 280 283 284 283 283 283 282 282 283 285 285 284 285 286 283 277 274 274 272 271 275 278 279 281 282 283 284 285 287 289 289 288 287 286 287 288 288 289 290 290 290 290 290 290 288 286 286 286 288 291 290 290 291 292 292 290 288 287
236 236 238 240 241 242 243 244 247 249 248 250 253 255 255 256 256 257 258 259 260 262 265 268 272 276 279 281 282 283 283 284 284 283 284 287 288 286 283 281 280 279 278 277 276 272 272 277 280 282 285 287 288 290 292 291 289 286 283 282 281 282 284 286 289 291 291 290 289 288 288 286 285 284 283 284 286 287 288 289 289 289 288 287 287
235 235 238 240 241 241 242 244 248 250 249 249 250 250 251 253 256 258 258 258 259 260 264 269 274 277 279 280 281 282 282 283 284 284 285 289 293 289 281 276 279 288 289 284 283 285 285 284 283 282 282 283 285 289 294 295 293 287 281 278 278 278 281 284 286 289 291 291 290 289 288 287 286 285 284 284 284 285 285 286 287 287 287 286 286
Height
3218 3220 3221 3222 3222 3223 3224 3225 3226 3227 3228 3228 3229 3229 3230 3230 3230 3230 3230 3230 3230 3230 3229 3229 3229 3229 3228 3228 3227 3226 3226 3225 3224 3224 3223 3223 3223 3222 3221 3219 3217 3216 3215 3214 3213 3211 3210 3208 3207 3205 3204 3203 3202 3200 3199 3198 3196 3194 3192 3190 3188 3187 3185 3185 3184 3184 3185 3186 3187 3187 3186 3185 3185 3185 3186 3187 3189 3190 3192 3194 3195 3196 3198 3202 3205
3218 3220 3221 3222 3223 3224 3224 3225 3226 3227 3228 3229 3229 3230 3230 3230 3231 3231 3231 3231 3230 3230 3230 3230 3229 3229 3229 3228 3227 3227 3226 3225 3224 3224 3223 3222 3222 3222 3221 3219 3217 3216 3215 3214 3213 3211 3210 3208 3207 3205 3204 3202 3201 3200 3199 3198 3196 3194 3192 3190 3188 3186 3184 3183 3182 3182 3183 3184 3186 3185 3183 3183 3183 3183 3184 3185 3186 3188 3190 3191 3193 3194 3196 3199 3202
3218 3219 3221 3222 3223 3224 3225 3226 3226 3227 3228 3229 3229 3230 3230 3230 3231 3231 3231 3231 3231 3230 3230 3230 3230 3229 3229 3228 3228 3227 3227 3226 3225 3224 3223 3222 3222 3221 3220 3219 3218 3216 3215 3214 3213 3211 3210 3208 3207 3205 3204 3202 3200 3199 3199 3198 3196 3194 3191 3190 3188 3186 3184 3182 3181 3180 3181 3182 3183 3183 3182 3182 3182 3182 3183 3184 3184 3186 3188 3189 3190 3192 3195 3197 3200
3218 3219 3221 3222 3223 3224 3225 3226 3227 3227 3228 3229 3229 3230 3230 3230 3231 3231 3231 3231 3231 3230 3230 3230 3230 3229 3229 3229 3228 3227 3227 3226 3225 3224 3224 3223 3221 3220 3220 3219 3218 3217 3215 3214 3213 3211 3210 3208 3207 3205 3204 3202 3200 3198 3198 3199 3197 3193 3191 3190 3188 3186 3184 3182 3181 3179 3179 3179 3180 3180 3180 3181 3182 3182 3182 3183 3183 3185 3186 3187 3189 3190 3193 3196 3199
3217 3219 3221 3222 3223 3224 3225 3226 3227 3227 3228 3229 3229 3230 3230 3230 3231 3231 3231 3231 3231 3231 3231 3231 3230 3230 3229 3229 3228 3228 3227 3226 3225 3224 3224 3223 3221 3220 3219 3218 3218 3217 3216 3214 3213 3211 3210 3208 3206 3205 3203 3203 3201 3197 3198 3201 3199 3194 3191 3189 3188 3186 3185 3183 3180 3179 3177 3177 3177 3177 3177 3179 3181 3180 3179 3181 3182 3184 3185 3186 3188 3189 3191 3194 3197
3217 3219 3221 3222 3223 3224 3225 3226 3227 3227 3228 3229 3229 3229 3230 3230 3230 3231 3231 3231 3231 3231 3231 3231 3230 3230 3229 3229 3228 3228 3227 3226 3225 3224 3224 3223 3222 3220 3219 3218 3217 3216 3215 3214 3213 3211 3210 3208 3206 3205 3203 3202 3202 3198 3198 3201 3199 3195 3192 3189 3188 3186 3185 3183 3180 3178 3177 3176 3175 3175 3174 3175 3177 3177 3177 3179 3181 3182 3183 3185 3187 3188 3190 3193 3196
3217 3219 3220 3222 3223 3224 3225 3226 3227 3228 3228 3229 3229 3229 3229 3230 3230 3230 3231 3231 3231 3231 3231 3231 3230 3230 3229 3229 3228 3227 3227 3226 3225 3224 3223 3223 3221 3220 3219 3218 3217 3216 3215 3214 3212 3211 3209 3208 3206 3204 3203 3202 3202 3199 3198 3200 3197 3195 3192 3189 3188 3186 3185 3182 3179 3177 3176 3175 3174 3173 3172 3172 3174 3175 3175 3177 3179 3180 3182 3184 3186 3188 3190 3193 3195
3217 3219 3220 3222 3223 3224 3225 3226 3227 3228 3228 3228 3229 3229 3229 3229 3230 3230 3230 3231 3231 3231 3231 3231 3230 3230 3230 3229 3228 3227 3227 3226 3225 3224 3223 3223 3221 3220 3219 3217 3216 3215 3214 3213 3212 3211 3209 3208 3206 3204 3203 3202 3202 3200 3198 3198 3197 3195 3193 3190 3188 3186 3184 3182 3179 3177 3175 3173 3173 3172 3171 3171 3172 3173 3174 3176 3178 3179 3181 3183 3185 3187 3189 3192 3194
3217 3219 3220 3222 3223 3224 3225 3226 3227 3227 3228 3228 3228 3229 3229 3229 3229 3229 3230 3230 3230 3231 3231 3230 3230 3231 3230 3229 3228 3227 3226 3225 3225 3224 3223 3222 3221 3220 3217 3216 3215 3215 3214 3213 3212 3211 3209 3207 3206 3204 3203 3202 3201 3199 3198 3198 3197 3195 3193 3191 3188 3186 3183 3182 3179 3176 3174 3172 3171 3170 3169 3169 3170 3171 3173 3175 3176 3179 3180 3182 3184 3186 3189 3191 3194
3217 3218 3220 3221 3223 3224 3225 3226 3227 3227 3227 3228 3228 3228 3229 3229 3228 3228 3229 3229 3229 3230 3230 3230 3230 3230 3230 3229 3228 3227 3226 3225 3224 3223 3223 3222 3221 3219 3218 3215 3214 3214 3214 3213 3211 3210 3209 3207 3205 3204 3203 3202 3201 3200 3197 3197 3198 3195 3193 3191 3188 3185 3183 3182 3179 3176 3173 3172 3170 3169 3168 3168 3169 3170 3172 3174 3175 3178 3180 3182 3184 3186 3188 3191 3193
3217 3218 3220 3221 3222 3224 3225 3225 3226 3227 3227 3227 3228 3228 3228 3228 3228 3228 3228 3229 3229 3229 3229 3229 3229 3229 3229 3228 3227 3226 3226 3224 3223 3223 3222 3222 3221 3219 3218 3215 3214 3214 3213 3212 3211 3210 3208 3206 3205 3204 3203 3202 3201 3200 3196 3194 3196 3195 3192 3189 3186 3184 3184 3182 3179 3175 3173 3171 3170 3168 3167 3167 3168 3169 3171 3173 3175 3177 3180 3182 3184 3186 3188 3190 3192
3217 3218 3220 3221 3222 3223 3224 3225 3226 3226 3227 3227 3228 3228 3228 3228 3228 3228 3229 3228 3229 3229 3229 3229 3229 3228 3228 3228 3227 3226 3225 3224 3223 3223 3222 3221 3221 3219 3218 3215 3214 3214 3213 3211 3209 3208 3206 3205 3205 3204 3204 3202 3200 3200 3197 3192 3192 3194 3191 3187 3185 3185 3184 3182 3179 3175 3173 3170 3169 3168 3167 3167 3168 3169 3171 3172 3174 3177 3179 3181 3184 3186 3188 3189 3191
3217 3218 3219 3220 3222 3223 3224 3224 3225 3226 3226 3227 3227 3228 3228 3228 3228 3228 3229 3229 3228 3229 3229 3229 3228 3228 3228 3227 3227 3226 3225 3224 3223 3223 3222 3221 3220 3219 3218 3216 3215 3214 3212 3211 3209 3208 3206 3205 3205 3204 3204 3202 3200 3199 3198 3194 3191 3191 3190 3187 3186 3186 3185 3183 3179 3176 3173 3171 3169 3168 3168 3168 3168 3169 3170 3172 3174 3177 3179 3181 3184 3186 3187 3189 3191
3217 3218 3219 3220 3221 3222 3223 3224 3225 3225 3226 3226 3227 3227 3227 3228 3228 3228 3228 3228 3228 3228 3228 3228 3228 3228 3227 3227 3227 3225 3224 3223 3223 3223 3222 3221 3220 3219 3217 3216 3215 3213 3212 3210 3209 3208 3206 3204 3204 3204 3203 3202 3202 3200 3198 3197 3194 3192 3190 3188 3188 3188 3186 3184 3181 3177 3174 3172 3170 3169 3168 3168 3169 3170 3171 3172 3174 3176 3179 3181 3183 3185 3186 3188 3190
3216 3217 3218 3219 3220 3222 3222 3223 3224 3225 3225 3226 3226 3227 3227 3227 3227 3228 3228 3228 3228 3228 3228 3228 3228 3227 3227 3227 3226 3225 3224 3223 3223 3222 3221 3220 3220 3219 3217 3215 3214 3213 3212 3210 3208 3208 3207 3206 3205 3205 3204 3203 3202 3201 3199 3198 3196 3194 3193 3191 3191 3190 3188 3186 3183 3180 3177 3174 3172 3170 3170 3169 3170 3171 3171 3172 3174 3176 3179 3181 3183 3184 3186 3187 3189
3216 3217 3218 3219 3220 3221 3222 3223 3223 3224 3225 3225 3226 3226 3226 3227 3227 3227 3227 3227 3227 3227 3227 3227 3227 3227 3227 3226 3226 3225 3224 3224 3223 3222 3221 3220 3218 3217 3215 3214 3213 3212 3212 3211 3208 3208 3208 3207 3206 3205 3205 3204 3202 3201 3200 3199 3198 3196 3195 3194 3193 3192 3190 3187 3185 3182 3180 3177 3175 3173 3172 3171 3171 3172 3173 3174 3175 3176 3178 3180 3182 3184 3186 3188 3189
3215 3216 3217 3218 3219 3220 3221 3222 3223 3224 3224 3224 3225 3225 3226 3226 3226 3226 3226 3226 3227 3226 3226 3226 3226 3226 3226 3226 3225 3225 3224 3224 3223 3222 3221 3219 3216 3214 3215 3215 3214 3212 3212 3211 3210 3209 3209 3208 3207 3206 3205 3204 3202 3201 3201 3200 3199 3198 3197 3195 3194 3193 3192 3189 3187 3184 3182 3180 3178 3177 3175 3174 3174 3174 3175 3176 3177 3178 3179 3181 3182 3184 3186 3188 3189
3214 3215 3216 3217 3218 3219 3220 3221 3222 3223 3223 3224 3224 3225 3225 3225 3225 3225 3225 3225 3226 3226 3226 3226 3225 3225 3225 3225 3225 3225 3224 3223 3223 3222 3221 3219 3216 3215 3217 3216 3215 3214 3211 3211 3211 3211 3210 3209 3208 3207 3205 3204 3202 3202 3202 3201 3200 3199 3198 3197 3196 3194 3193 3191 3189 3187 3185 3183 3181 3180 3179 3178 3177 3177 3177 3178 3179 3180 3181 3183 3184 3185 3186 3188 3189
3214 3215 3216 3217 3218 3219 3220 3221 3221 3222 3222 3223 3224 3224 3224 3224 3224 3224 3224 3225 3225 3225 3225 3225 3225 3225 3225 3224 3224 3224 3223 3223 3222 3222 3221 3219 3217 3217 3217 3215 3214 3214 3212 3212 3212 3211 3211 3210 3208 3207 3206 3205 3204 3204 3203 3202 3202 3201 3199 3198 3197 3195 3195 3193 3192 3189 3187 3185 3184 3182 3182 3181 3181 3181 3181 3181 3182 3183 3184 3185 3186 3187 3188 3189 3190
3213 3214 3216 3217 3217 3218 3219 3220 3221 3221 3222 3222 3223 3223 3223 3223 3223 3223 3223 3224 3224 3224 3224 3224 3224 3224 3224 3224 3223 3223 3223 3222 3222 3221 3220 3220 3219 3218 3217 3216 3215 3214 3213 3213 3212 3212 3211 3210 3209 3208 3207 3206 3205 3204 3204 3203 3202 3201 3200 3199 3198 3197 3196 3195 3194 3192 3190 3188 3186 3185 3184 3184 3184 3184 3184 3184 3185 3185 3186 3187 3188 3188 3189 3190 3191
3213 3214 3215 3216 3217 3218 3218 3219 3220 3220 3221 3221 3222 3222 3222 3222 3222 3222 3223 3223 3223 3223 3223 3223 3223 3223 3222 3223 3223 3222 3222 3221 3221 3221 3220 3220 3219 3219 3218 3217 3216 3215 3214 3214 3213 3212 3211 3210 3210 3209 3207 3207 3206 3205 3204 3204 3203 3202 3201 3200 3199 3198 3197 3196 3195 3194 3193 3191 3189 3188 3187 3187 3187 3187 3187 3187 3187 3187 3188 3188 3189 3190 3190 3191 3192
3212 3213 3214 3215 3216 3217 3218 3218 3219 3220 3220 3220 3221 3221 3221 3221 3221 3222 3222 3222 3222 3222 3222 3222 3222 3222 3221 3221 3222 3221 3221 3221 3220 3220 3220 3219 3219 3218 3218 3217 3217 3215 3214 3213 3212 3211 3211 3210 3210 3209 3208 3207 3206 3205 3205 3204 3203 3202 3202 3201 3200 3199 3198 3198 3197 3196 3195 3193 3192 3191 3190 3189 3189 3189 3189 3189 3189 3189 3189 3190 3190 3191 3192 3192 3193
3212 3213 3214 3215 3215 3216 3217 3218 3218 3219 3219 3219 3220 3220 3220 3220 3220 3221 3221 3221 3221 3221 3221 3221 3221 3221 3221 3221 3221 3220 3220 3220 3220 3220 3219 3219 3219 3218 3217 3216 3216 3215 3214 3213 3212 3211 3211 3210 3209 3209 3208 3207 3206 3206 3205 3204 3204 3203 3203 3202 3201 3200 3199 3198 3198 3197 3196 3195 3194 3193 3192 3192 3191 3191 3191 3191 3190 3190 3191 3191 3192 3192 3193 3193 3194
3211 3212 3213 3214 3215 3215 3216 3217 3217 3218 3218 3219 3219 3219 3219 3219 3220 3220 3220 3220 3220 3220 3220 3220 3220 3220 3220 3220 3220 3220 3219 3219 3219 3219 3219 3219 3218 3217 3216 3215 3215 3214 3213 3213 3212 3211 3210 3210 3209 3209 3208 3207 3207 3206 3205 3205 3204 3204 3203 3203 3202 3201 3200 3199 3199 3198 3198 3197 3196 3195 3195 3194 3193 3193 3193 3192 3192 3192 3192 3192 3193 3193 3194 3194 3195
3210 3211 3212 3213 3214 3214 3215 3216 3216 3217 3217 3218 3218 3218 3219 3219 3219 3219 3219 3219 3219 3219 3220 3220 3219 3219 3219 3219 3219 3219 3219 3219 3219 3219 3218 3218 3217 3217 3216 3215 3214 3214 3213 3212 3212 3211 3210 3209 3209 3208 3208 3207 3207 3206 3205 3205 3204 3204 3203 3203 3202 3202 3201 3200 3200 3199 3199 3198 3197 3197 3196 3196 3195 3195 3195 3194 3194 3194 3194 3194 3194 3194 3194 3195 3195
3210 3211 3211 3212 3213 3213 3214 3215 3215 3216 3216 3216 3217 3217 3218 3218 3218 3218 3218 3219 3219 3219 3219 3219 3219 3219 3219 3219 3219 3219 3218 3218 3218 3218 3218 3217 3217 3216 3215 3214 3214 3213 3212 3212 3211 3211 3210 3209 3209 3208 3208 3207 3206 3206 3205 3205 3204 3204 3203 3203 3202 3202 3202 3201 3201 3200 3199 3199 3198 3198 3198 3197 3197 3197 3197 3196 3196 3195 3195 3195 3195 3195 3195 3196 3196
3208 3209 3210 3211 3211 3212 3213 3214 3214 3215 3215 3215 3216 3216 3217 3217 3217 3218 3218 3218 3219 3219 3218 3218 3218 3218 3218 3218 3218 3218 3218 3218 3218 3218 3217 3217 3216 3215 3215 3214 3213 3213 3212 3211 3211 3211 3210 3208 3208 3208 3207 3207 3206 3205 3205 3204 3204 3204 3203 3203 3203 3202 3202 3201 3201 3201 3200 3200 3199 3198 3198 3198 3198 3198 3198 3198 3197 3197 3196 3196 3196 3196 3196 3196 3196
3207 3208 3209 3210 3210 3211 3212 3213 3213 3214 3214 3215 3215 3215 3216 3216 3217 3217 3217 3218 3218 3218 3218 3218 3218 3218 3218 3218 3218 3218 3218 3218 3217 3217 3217 3216 3216 3215 3215 3214 3213 3213 3212 3210 3210 3210 3209 3207 3207 3207 3207 3206 3206 3205 3205 3204 3203 3203 3203 3203 3202 3202 3201 3201 3201 3201 3201 3200 3200 3199 3198 3198 3198 3198 3199 3199 3198 3198 3198 3197 3197 3196 3196 3196 3197
3206 3207 3208 3208 3209 3210 3211 3211 3212 3213 3213 3214 3214 3214 3215 3216 3216 3216 3217 3217 3217 3217 3217 3217 3217 3217 3217 3217 3217 3217 3217 3217 3217 3216 3216 3216 3215 3215 3215 3214 3213 3213 3212 3211 3210 3210 3209 3207 3206 3206 3207 3206 3206 3205 3205 3204 3203 3203 3202 3202 3202 3201 3201 3201 3201 3201 3200 3200 3200 3200 3199 3199 3199 3198 3199 3199 3199 3199 3198 3198 3198 3197 3197 3197 3197
3205 3206 3206 3207 3208 3209 3210 3210 3211 3212 3212 3213 3213 3214 3214 3215 3215 3215 3216 3216 3216 3216 3217 3217 3217 3217 3217 3217 3217 3217 3216 3216 3216 3215 3215 3215 3215 3214 3214 3214 3213 3212 3211 3211 3210 3209 3208 3207 3207 3207 3206 3206 3205 3205 3204 3204 3203 3203 3202 3202 3201 3201 3201 3201 3200 3200 3200 3200 3200 3200 3199 3199 3199 3199 3198 3198 3199 3199 3199 3198 3198 3198 3197 3197 3197
3204 3204 3205 3206 3207 3207 3208 3209 3210 3210 3211 3212 3212 3212 3213 3214 3214 3215 3215 3215 3215 3215 3216 3216 3216 3216 3216 3216 3216 3216 3216 3215 3215 3214 3214 3214 3213 3213 3213 3212 3212 3211 3211 3210 3209 3208 3208 3207 3207 3206 3206 3205 3205 3204 3203 3203 3203 3202 3202 3201 3201 3200 3200 3200 3200 3200 3199 3199 3199 3199 3199 3199 3199 3199 3198 3198 3198 3198 3198 3198 3198 3198 3198 3197 3197
3202 3203 3204 3205 3205 3206 3207 3207 3208 3209 3210 3210 3211 3211 3212 3213 3213 3213 3213 3214 3214 3214 3215 3215 3215 3215 3215 3215 3215 3215 3215 3215 3214 3214 3213 3212 3212 3211 3211 3211 3210 3210 3209 3209 3208 3207 3206 3206 3206 3205 3204 3204 3204 3204 3203 3202 3202 3201 3201 3201 3200 3199 3199 3199 3199 3199 3198 3199 3199 3199 3198 3198 3198 3198 3198 3198 3198 3198 3198 3197 3197 3197 3197 3197 3197
3201 3202 3203 3203 3204 3205 3205 3206 3207 3208 3208 3209 3209 3210 3211 3211 3212 3212 3212 3212 3213 3213 3214 3214 3214 3214 3214 3214 3214 3214 3214 3214 3213 3212 3211 3210 3210 3209 3209 3209 3209 3208 3208 3208 3207 3206 3204 3203 3203 3203 3203 3202 3202 3202 3202 3201 3201 3200 3200 3199 3199 3198 3198 3197 3197 3197 3197 3197 3197 3198 3198 3198 3198 3197 3198 3198 3198 3198 3197 3197 3197 3197 3196 3196 3196
3200 3201 3202 3202 3203 3204 3204 3205 3206 3206 3207 3207 3208 3208 3209 3210 3210 3211 3211 3211 3212 3212 3212 3213 3213 3213 3213 3213 3213 3213 3212 3212 3211 3210 3209 3209 3208 3208 3208 3207 3207 3207 3207 3206 3206 3205 3204 3202 3202 3201 3200 3200 3200 3200 3200 3200 3199 3199 3198 3198 3198 3197 3197 3196 3195 3195 3196 3196 3196 3196 3196 3196 3196 3196 3196 3196 3196 3196 3196 3196 3196 3196 3196 3196 3196
3198 3199 3200 3201 3201 3202 3203 3204 3205 3205 3205 3206 3207 3207 3208 3208 3209 3209 3209 3209 3210 3210 3211 3211 3211 3211 3211 3211 3212 3212 3211 3211 3210 3209 3209 3209 3208 3208 3207 3207 3206 3206 3205 3205 3204 3203 3202 3201 3200 3199 3197 3197 3198 3197 3197 3197 3197 3197 3197 3196 3196 3196 3196 3195 3195 3194 3194 3195 3195 3195 3195 3195 3195 3195 3195 3195 3195 3195 3195 3195 3195 3195 3195 3195 3195
3196 3197 3198 3199 3200 3201 3202 3202 3203 3204 3204 3205 3205 3206 3206 3207 3207 3208 3208 3208 3208 3209 3209 3209 3209 3209 3209 3209 3210 3210 3210 3209 3209 3209 3208 3208 3207 3207 3207 3206 3205 3204 3203 3203 3202 3201 3200 3199 3198 3197 3196 3196 3195 3195 3195 3195 3195 3195 3195 3194 3195 3195 3194 3194 3194 3193 3193 3194 3194 3193 3194 3193 3193 3193 3193 3193 3193 3193 3193 3193 3193 3193 3193 3193 3193
3194 3195 3196 3197 3198 3199 3200 3201 3201 3202 3202 3203 3204 3204 3205 3206 3206 3206 3207 3207 3207 3207 3208 3208 3207 3207 3207 3208 3208 3208 3208 3207 3207 3207 3206 3206 3205 3205 3205 3204 3203 3203 3202 3201 3200 3200 3198 3197 3196 3195 3194 3193 3193 3192 3193 3193 3193 3192 3192 3192 3192 3192 3192 3193 3192 3191 3191 3192 3192 3192 3192 3192 3192 3192 3191 3191 3191 3191 3191 3191 3191 3191 3191 3191 3191
3192 3193 3194 3195 3196 3197 3198 3199 3199 3200 3200 3201 3202 3203 3204 3204 3205 3205 3205 3206 3206 3206 3206 3206 3205 3205 3206 3206 3207 3206 3205 3205 3205 3205 3204 3203 3203 3202 3202 3202 3201 3201 3200 3199 3199 3198 3196 3195 3194 3193 3192 3192 3191 3190 3190 3191 3191 3190 3190 3190 3190 3190 3190 3190 3190 3189 3189 3189 3189 3190 3190 3190 3190 3190 3190 3189 3189 3189 3189 3188 3188 3189 3189 3189 3189
3190 3191 3192 3193 3193 3195 3196 3196 3197 3198 3198 3199 3200 3201 3202 3202 3203 3203 3204 3204 3204 3204 3204 3203 3204 3204 3204 3204 3205 3204 3204 3203 3203 3202 3201 3201 3200 3199 3199 3198 3198 3198 3198 3197 3196 3196 3194 3193 3192 3191 3191 3191 3191 3190 3189 3189 3190 3189 3189 3188 3187 3187 3187 3187 3188 3188 3187 3187 3187 3187 3187 3187 3187 3187 3187 3187 3187 3187 3186 3186 3186 3186 3186 3186 3186
3187 3189 3190 3190 3191 3192 3193 3194 3195 3195 3196 3197 3198 3199 3200 3200 3201 3201 3202 3202 3202 3202 3202 3202 3202 3202 3203 3203 3203 3203 3202 3201 3200 3199 3198 3198 3197 3196 3195 3195 3195 3195 3195 3194 3194 3193 3192 3191 3190 3189 3189 3190 3189 3188 3188 3187 3187 3188 3187 3186 3185 3185 3185 3185 3185 3185 3185 3185 3185 3184 3184 3184 3184 3184 3184 3184 3184 3184 3183 3183 3183 3183 3183 3183 3183
3184 3186 3187 3188 3189 3190 3191 3192 3193 3193 3194 3195 3196 3197 3198 3198 3199 3199 3199 3200 3200 3200 3199 3200 3200 3200 3201 3201 3201 3200 3200 3199 3197 3197 3196 3195 3194 3193 3192 3192 3192 3192 3192 3192 3191 3191 3190 3189 3188 3187 3187 3187 3187 3187 3186 3185 3184 3184 3183 3182 3181 3181 3182 3182 3182 3182 3183 3183 3182 3182 3182 3182 3182 3181 3181 3181 3181 3180 3180 3180 3180 3180 3180 3179 3179
3181 3183 3184 3185 3187 3187 3188 3189 3190 3191 3192 3193 3194 3195 3196 3196 3196 3197 3197 3197 3197 3198 3197 3198 3198 3198 3198 3198 3198 3198 3197 3196 3195 3195 3194 3194 3193 3191 3190 3189 3190 3190 3190 3189 3189 3188 3187 3186 3186 3185 3185 3184 3184 3184 3183 3183 3182 3181 3181 3179 3178 3178 3178 3178 3179 3180 3180 3180 3180 3180 3180 3180 3180 3179 3179 3178 3177 3177 3176 3175 3175 3175 3175 3176 3176
3178 3179 3181 3182 3184 3185 3186 3187 3188 3189 3190 3191 3192 3193 3194 3194 3194 3194 3195 3195 3195 3195 3195 3195 3195 3195 3195 3195 3195 3195 3195 3194 3193 3193 3192 3192 3191 3190 3189 3188 3188 3188 3187 3187 3186 3185 3185 3184 3183 3183 3182 3182 3181 3181 3181 3180 3179 3179 3179 3178 3177 3177 3176 3176 3176 3177 3177 3177 3178 3178 3178 3177 3177 3177 3177 3176 3174 3173 3172 3171 3171 3172 3172 3172 3172
3176 3177 3178 3179 3180 3182 3183 3184 3185 3186 3186 3188 3190 3191 3191 3192 3192 3192 3192 3192 3192 3193 3193 3193 3193 3193 3193 3193 3193 3193 3192 3191 3190 3190 3190 3189 3189 3188 3188 3187 3186 3186 3185 3184 3184 3183 3182 3181 3181 3180 3180 3179 3179 3178 3178 3177 3177 3177 3177 3176 3176 3176 3176 3176 3175 3173 3173 3174 3175 3175 3175 3175 3175 3174 3173 3172 3171 3170 3169 3170 3171 3171 3171 3171 3170
3173 3174 3175 3176 3177 3179 3180 3181 3183 3183 3183 3185 3187 3188 3188 3189 3190 3190 3190 3190 3190 3190 3190 3190 3190 3190 3190 3189 3188 3188 3188 3188 3188 3187 3187 3186 3186 3185 3185 3184 3184 3183 3183 3182 3181 3180 3179 3179 3178 3177 3177 3177 3176 3175 3175 3175 3175 3175 3175 3174 3174 3174 3174 3175 3174 3171 3170 3171 3172 3172 3173 3173 3172 3172 3171 3169 3169 3167 3166 3168 3169 3169 3168 3169 3168
3170 3171 3172 3173 3175 3176 3177 3178 3179 3179 3179 3182 3184 3185 3186 3187 3187 3187 3187 3187 3187 3187 3187 3188 3187 3186 3185 3184 3183 3183 3184 3185 3185 3185 3183 3183 3182 3181 3181 3181 3180 3180 3179 3179 3177 3177 3176 3176 3175 3175 3175 3175 3174 3173 3173 3173 3173 3173 3173 3172 3172 3172 3172 3172 3171 3170 3168 3169 3169 3170 3170 3169 3169 3169 3168 3168 3167 3165 3163 3164 3165 3165 3165 3165 3165
3167 3168 3169 3171 3172 3173 3174 3175 3175 3175 3177 3180 3181 3182 3183 3184 3184 3184 3184 3184 3184 3184 3184 3184 3184 3184 3182 3182 3181 3181 3182 3181 3181 3181 3180 3178 3178 3178 3177 3177 3176 3176 3177 3176 3174 3173 3173 3172 3172 3172 3172 3172 3172 3171 3171 3171 3170 3171 3171 3170 3170 3170 3169 3169 3168 3167 3166 3166 3167 3167 3167 3166 3166 3165 3165 3165 3165 3163 3160 3160 3161 3161 3161 3161 3161
3163 3164 3166 3167 3169 3170 3171 3172 3171 3172 3175 3176 3177 3179 3180 3181 3181 3181 3181 3181 3181 3181 3181 3181 3181 3181 3180 3180 3180 3179 3178 3177 3177 3177 3176 3174 3174 3175 3173 3172 3173 3174 3174 3174 3172 3171 3170 3169 3169 3169 3170 3170 3169 3169 3169 3169 3168 3168 3168 3168 3168 3167 3167 3166 3166 3164 3163 3164 3164 3163 3164 3164 3163 3162 3162 3161 3161 3160 3158 3156 3157 3157 3157 3157 3156
3158 3160 3162 3163 3165 3166 3168 3169 3167 3168 3172 3173 3174 3175 3177 3177 3178 3178 3177 3178 3178 3178 3178 3178 3179 3178 3178 3178 3177 3175 3174 3173 3172 3173 3172 3170 3171 3171 3170 3169 3170 3171 3170 3170 3170 3169 3168 3168 3167 3167 3167 3167 3167 3167 3167 3167 3167 3166 3166 3166 3165 3165 3164 3164 3163 3162 3161 3161 3161 3161 3160 3160 3160 3159 3159 3158 3157 3156 3154 3153 3152 3152 3152 3153 3152
3154 3156 3157 3159 3161 3162 3164 3165 3164 3165 3169 3170 3170 3172 3173 3174 3175 3175 3175 3175 3175 3175 3175 3175 3176 3176 3175 3175 3174 3172 3170 3169 3169 3169 3168 3167 3167 3167 3167 3167 3167 3167 3166 3166 3166 3167 3166 3166 3166 3165 3165 3165 3164 3164 3164 3164 3164 3164 3164 3163 3163 3162 3162 3161 3161 3160 3158 3157 3158 3157 3156 3156 3155 3155 3155 3155 3154 3152 3150 3149 3148 3147 3147 3147 3146
3149 3151 3153 3155 3157 3158 3160 3161 3162 3163 3166 3167 3167 3168 3170 3171 3171 3171 3171 3171 3171 3171 3172 3172 3173 3173 3172 3172 3170 3169 3168 3167 3166 3166 3165 3165 3164 3164 3164 3165 3165 3165 3164 3163 3163 3164 3164 3164 3163 3163 3163 3162 3162 3162 3161 3161 3161 3161 3160 3160 3160 3160 3159 3158 3158 3157 3155 3154 3154 3153 3152 3151 3151 3150 3150 3150 3150 3148 3146 3145 3144 3143 3142 3141 3141